Weather Roundup
Issued by NWS Corpus Christi, TX

Home | Current Version | Previous Version | Text Only | Print | Product List | Glossary On
Versions: 1 2 3 4 5 6 7 8 9 10 11 12 13 14 15 16 17 18 19 20 21 22 23 24 25 26 27 28 29 30 31 32 33 34 35 36 37 38 39 40 41 42 43 44 45 46 47 48 49 50
000
ASUS44 KCRP 161410
HRRCRP

SOUTH TEXAS REGIONAL WEATHER ROUNDUP
NATIONAL WEATHER SERVICE CORPUS CHRISTI TX
900 AM CDT TUE SEP 16 2014


TXZ229>244-161500-
...CORPUS CHRISTI AREA OBSERVATIONS...

CITY           SKY/WX    TMP DP  RH WIND       PRES   REMARKS
CORPUS CHRISTI PTSUNNY   80  78  94 E5        30.01R
NAS CORPUS CHR PTSUNNY   82  78  88 SE7       30.00R HX  91
ROCKPORT       PTSUNNY  N/A N/A N/A SE3       30.01R
KINGSVILLE NAS PTSUNNY   81  80  97 CALM      30.00R HX  91
ALICE          CLOUDY    79  77  94 NE10      30.00S
FALFURRIAS     CLOUDY    58  54  86 CALM      30.00S
$$

...VICTORIA AREA OBSERVATIONS...

CITY           SKY/WX    TMP DP  RH WIND       PRES   REMARKS
VICTORIA       PTSUNNY   80  78  94 NE10      30.05R
BEEVILLE       CLOUDY    79  78  95 NE9       30.03S
PLEASANTON     MOSUNNY   79  72  79 NE7       30.07S
SAN ANTONIO    PTSUNNY   79  73  82 E8        30.09S
$$

...LAREDO AREA OBSERVATIONS...

CITY           SKY/WX    TMP DP  RH WIND       PRES   REMARKS
LAREDO         SUNNY     80  72  76 CALM      30.07R
COTULLA        MOSUNNY   80  72  76 NE7       30.06R
DEL RIO        PTSUNNY   77  69  76 NE3       30.09R
MCALLEN        CLOUDY    79  77  94 CALM      30.02R FOG
HEBBRONVILLE   CLOUDY    76  74  91 N6        30.04S
$$

...OTHER TEXAS OBSERVATIONS...

CITY           SKY/WX    TMP DP  RH WIND       PRES   REMARKS
BROWNSVILLE    CLOUDY    79  73  83 CALM      30.02R
HOUSTON        PTSUNNY   80  77  90 E8        30.06S
COL. STATION   MOSUNNY   78  74  87 E5        30.08S
AUSTIN         MOSUNNY   77  73  87 NE6       30.09R
WACO           PTSUNNY   75  71  87 NE3       30.11R
FORT WORTH     CLOUDY    78  70  76 E5        30.12S
WICHITA FALLS  CLOUDY    73  70  90 NE5       30.14R FOG
LUBBOCK        CLOUDY    64  60  87 N8        30.23S
EL PASO        CLOUDY    66  64  93 N13       30.20R
$$

...MARINE OBSERVATIONS...

STATION/POSITION TIME  SKY/WX   TEMP    WIND        PRES    VSBY  WAVE   SWELL
                                AIR SEA DIR/SP/G                  HT/PER HT/PER
                 (UTC)          (F)     (DEG/KT/KT) (MB)    (MI)  (FT/S) (FT/S)
PORT ARANSAS     1400            81 83  210/ 10/ 12 1016.7R
BUOY 90 E PORT A 1400            84 85  170/ 10/ 12 1017.3R         3/ 6   3/ 6
BUOY 45 SE BAFFI 1400            83 84  180/ 12/ 14 1015.7R         3/ 4   2/ 6
BUOY 200 E PT IS 1400            85 85  160/ 14/ 16 1017.5R         3/ 6   2/ 7
BUOY 15 E GALVES 1400            82 85  150/  8/ 10 1017.0S         2/ 5   2/ 5
$$



USA.gov is the U.S. government's official web portal to all federal, state and local government web resources and services.